Home   Weather   Bridgeport   Past weeks

Flag for USA Past Weather in Bridgeport, Connecticut, USA — Yesterday and Last 2 Weeks

Now
68 °F

Sunny.


Feels Like: 68 °F
Forecast: 50 / 67 °F
Wind: 13 mph from Northwest

Location: Sikorsky Memorial Airport

Current Time: Sep 25, 2016 at 6:43:47 PM

Latest Report: Sep 25, 2016 at 5:52 PM


Visibility: 10 mi

Pressure: 30.11 "Hg

Humidity: 25%

Dew Point: 31 °F

Location of BridgeportLocation

Past Weather in Bridgeport — Graph

°F

Bridgeport Temperature Yesterday

Maximum temperature yesterday: 72 °F (at 3:52 PM)
Minimum temperature yesterday: 58 °F (at 4:52 AM)
Average temperature yesterday: 64 °F

High & Low Weather Summary for the Past Weeks

 TemperatureHumidityPressure
High88 °F (Sep 14, 3:52 PM)94% (Sep 19, 7:12 AM)30.35 "Hg (Sep 19, 7:12 AM)
Low51 °F (Sep 25, 5:52 AM)23% (Sep 25, 3:52 PM)29.86 "Hg (Sep 11, 6:52 AM)
Average71 °F66%30.12 "Hg
* Reported Sep 10 4:52 PM — Sep 25 4:52 PM, Bridgeport, Weather by CustomWeather, © 2016

Note: Actual official high and low records may vary slightly from our data, if they occured in-between our weather recording intervals... More about our weather records

Advertising

Bridgeport Weather History for the Previous 24 Hours

Scroll right to see more
 ConditionsComfort  
Time TempWeatherWind HumidityBarometerVisibility
4:52 PM
Sun, Sep 25
70 °FSunny.14 mph23%30.10 "Hg10 mi
3:52 PM70 °FSunny.14 mph23%30.11 "Hg10 mi
2:52 PM69 °FSunny.12 mph25%30.12 "Hg10 mi
1:52 PM69 °FSunny.12 mph29%30.14 "Hg10 mi
12:52 PM68 °FSunny.12 mph25%30.16 "Hg10 mi
10:52 AM64 °FSunny.14 mph30%30.19 "Hg10 mi
9:52 AM61 °FSunny.8 mph41%30.19 "Hg10 mi
8:52 AM58 °FSunny.9 mph50%30.19 "Hg10 mi
7:52 AM53 °FSunny.7 mph64%30.19 "Hg10 mi
6:52 AM52 °FSunny.5 mph64%30.18 "Hg10 mi
5:52 AM51 °FClear.5 mph69%30.16 "Hg10 mi
4:52 AM52 °FClear.6 mph64%30.15 "Hg10 mi
3:52 AM52 °FClear.3 mph66%30.15 "Hg10 mi
2:52 AM53 °FClear.No wind64%30.14 "Hg10 mi
1:52 AM56 °FClear.3 mph55%30.14 "Hg10 mi
10:52 PM
Sat, Sep 24
58 °FClear.5 mph58%30.14 "Hg10 mi
9:52 PM60 °FClear.5 mph53%30.13 "Hg10 mi
8:52 PM63 °FClear.8 mph43%30.12 "Hg10 mi
7:52 PM65 °FClear.10 mph42%30.11 "Hg10 mi
6:52 PM66 °FClear.3 mph37%30.10 "Hg10 mi
Weather by CustomWeather, © 2016

See weather overviewHow to use our weather pages